When you browse on this site, cookies collect data to enhance your experience and personalize the content and advertising you see.
Visit our Privacy Policy to learn more. By continuing to use the site, you agree to this use of cookies and data.
  • In Schweiz
  • Länderverzeichnis
  • Für 7 Tage
  • Wassertemperatur
  • Satellitenkarten
  • Wetterkarte
  • Widgets
  • user-avatar
    Anmelden

    Stündliche Wetter Filderstadt

    Heute, 24 Mai, Freitag

    Zeit Temperatur Niederschläge Wind Luftdruck Luftfeuchtigkeit
    00:00 +11°C° 0 mm 1 m/S 728 mmHg 84%
    01:00 +10°C° 0 mm 1 m/S 728 mmHg 84%
    02:00 +10°C° 0 mm 1 m/S 728 mmHg 85%
    03:00 +10°C° 0 mm 1 m/S 728 mmHg 85%
    04:00 +9°C° 0 mm 1 m/S 727 mmHg 85%
    05:00 +11°C° 0 mm 1 m/S 727 mmHg 81%
    06:00 +12°C° 0 mm 1 m/S 727 mmHg 77%
    07:00 +14°C° 0 mm 1 m/S 727 mmHg 72%
    08:00 +15°C° 0 mm 1 m/S 727 mmHg 66%
    09:00 +18°C° 0 mm 1 m/S 727 mmHg 60%
    10:00 +20°C° 0 mm 1 m/S 727 mmHg 54%
    11:00 +21°C° 0 mm 1 m/S 727 mmHg 51%
    12:00 +23°C° 0 mm 1 m/S 727 mmHg 49%
    13:00 +24°C° 0 mm 1 m/S 727 mmHg 46%
    14:00 +23°C° 0 mm 1 m/S 727 mmHg 46%
    15:00 +23°C° 0 mm 1 m/S 726 mmHg 47%
    16:00 +23°C° 0 mm 1 m/S 726 mmHg 48%
    17:00 +22°C° 0 mm 1 m/S 726 mmHg 53%
    18:00 +21°C° 0 mm 1 m/S 726 mmHg 59%
    19:00 +20°C° 0 mm 1 m/S 725 mmHg 64%
    20:00 +18°C° 0 mm 1 m/S 726 mmHg 69%
    21:00 +14°C° 0 mm 0 m/S 726 mmHg 74%
    22:00 +12°C° 0 mm 0 m/S 726 mmHg 78%
    23:00 +12°C° 0 mm 0 m/S 726 mmHg 79%

    Morgen, 25 Mai, Samstag

    Zeit Temperatur Niederschläge Wind Luftdruck Luftfeuchtigkeit
    00:00 +12°C° 0 mm 0 m/S 726 mmHg 80%
    01:00 +12°C° 0 mm 0 m/S 726 mmHg 81%
    02:00 +11°C° 0 mm 0 m/S 726 mmHg 83%
    03:00 +11°C° 0 mm 0 m/S 726 mmHg 84%
    04:00 +10°C° 0 mm 0 m/S 726 mmHg 85%
    05:00 +12°C° 0 mm 0 m/S 726 mmHg 82%
    06:00 +13°C° 0 mm 0 m/S 726 mmHg 78%
    07:00 +14°C° 0 mm 0 m/S 726 mmHg 75%
    08:00 +18°C° 0 mm 1 m/S 726 mmHg 72%
    09:00 +19°C° 0 mm 1 m/S 727 mmHg 70%
    10:00 +20°C° 0 mm 1 m/S 727 mmHg 67%
    11:00 +20°C° 0.3 mm 1 m/S 727 mmHg 67%
    12:00 +20°C° 0.3 mm 2 m/S 727 mmHg 67%
    13:00 +20°C° 0.3 mm 2 m/S 726 mmHg 68%
    14:00 +20°C° 0.6 mm 2 m/S 726 mmHg 70%
    15:00 +19°C° 0.6 mm 2 m/S 726 mmHg 72%
    16:00 +19°C° 0.6 mm 2 m/S 726 mmHg 74%
    17:00 +18°C° 0.8 mm 2 m/S 726 mmHg 77%
    18:00 +17°C° 0.8 mm 2 m/S 726 mmHg 80%
    19:00 +18°C° 0.8 mm 1 m/S 726 mmHg 82%
    20:00 +15°C° 0.2 mm 1 m/S 727 mmHg 85%
    21:00 +14°C° 0.2 mm 1 m/S 727 mmHg 87%
    22:00 +13°C° 0.2 mm 1 m/S 727 mmHg 89%
    23:00 +12°C° 0.2 mm 1 m/S 727 mmHg 90%

    übermorgen, 26 Mai, Sonntag

    Zeit Temperatur Niederschläge Wind Luftdruck Luftfeuchtigkeit
    00:00 +12°C° 0.2 mm 1 m/S 727 mmHg 92%
    01:00 +10°C° 0.2 mm 2 m/S 727 mmHg 93%
    02:00 +10°C° 0 mm 2 m/S 727 mmHg 94%
    03:00 +10°C° 0 mm 2 m/S 727 mmHg 95%
    04:00 +10°C° 0 mm 2 m/S 727 mmHg 96%
    05:00 +10°C° 0 mm 2 m/S 727 mmHg 93%
    06:00 +11°C° 0 mm 3 m/S 727 mmHg 91%
    07:00 +12°C° 0 mm 3 m/S 728 mmHg 89%
    08:00 +13°C° 0 mm 3 m/S 728 mmHg 78%
    09:00 +14°C° 0 mm 3 m/S 728 mmHg 68%
    10:00 +16°C° 0 mm 3 m/S 728 mmHg 57%
    11:00 +17°C° 0 mm 3 m/S 728 mmHg 56%
    12:00 +17°C° 0 mm 3 m/S 728 mmHg 54%
    13:00 +18°C° 0 mm 3 m/S 728 mmHg 53%
    14:00 +18°C° 0 mm 3 m/S 727 mmHg 55%
    15:00 +19°C° 0 mm 3 m/S 727 mmHg 57%
    16:00 +19°C° 0 mm 3 m/S 727 mmHg 60%
    17:00 +19°C° 0 mm 2 m/S 726 mmHg 65%
    18:00 +18°C° 0 mm 2 m/S 726 mmHg 70%
    19:00 +19°C° 0 mm 1 m/S 726 mmHg 75%
    20:00 +16°C° 0 mm 1 m/S 726 mmHg 79%
    21:00 +15°C° 0 mm 2 m/S 726 mmHg 82%
    22:00 +14°C° 0 mm 2 m/S 726 mmHg 86%
    23:00 +13°C° 0 mm 2 m/S 725 mmHg 86%

    27 Mai, Montag

    Zeit Temperatur Niederschläge Wind Luftdruck Luftfeuchtigkeit
    00:00 +13°C° 0 mm 2 m/S 725 mmHg 87%
    01:00 +12°C° 0 mm 2 m/S 725 mmHg 87%
    02:00 +13°C° 0 mm 2 m/S 725 mmHg 88%
    03:00 +13°C° 0 mm 2 m/S 724 mmHg 88%
    04:00 +13°C° 0 mm 1 m/S 724 mmHg 89%
    05:00 +14°C° 0 mm 2 m/S 724 mmHg 87%
    06:00 +15°C° 0 mm 2 m/S 724 mmHg 86%
    07:00 +16°C° 0 mm 2 m/S 724 mmHg 84%
    08:00 +16°C° 0.2 mm 3 m/S 724 mmHg 80%
    09:00 +17°C° 0.2 mm 4 m/S 724 mmHg 76%
    10:00 +18°C° 0.2 mm 4 m/S 725 mmHg 73%
    11:00 +18°C° 0.4 mm 4 m/S 724 mmHg 73%
    12:00 +19°C° 0.4 mm 4 m/S 724 mmHg 73%
    13:00 +19°C° 0.4 mm 5 m/S 724 mmHg 74%
    14:00 +19°C° 0.3 mm 4 m/S 723 mmHg 72%
    15:00 +19°C° 0.3 mm 4 m/S 723 mmHg 69%
    16:00 +19°C° 0.3 mm 4 m/S 723 mmHg 67%
    17:00 +18°C° 0 mm 4 m/S 723 mmHg 70%
    18:00 +18°C° 0 mm 3 m/S 723 mmHg 73%
    19:00 +17°C° 0 mm 3 m/S 723 mmHg 76%
    20:00 +15°C° 0 mm 2 m/S 723 mmHg 81%
    21:00 +14°C° 0 mm 2 m/S 723 mmHg 85%
    22:00 +12°C° 0 mm 1 m/S 723 mmHg 90%
    23:00 +12°C° 0 mm 1 m/S 723 mmHg 90%

    28 Mai, Dienstag

    Zeit Temperatur Niederschläge Wind Luftdruck Luftfeuchtigkeit
    00:00 +12°C° 0 mm 1 m/S 723 mmHg 91%
    01:00 +11°C° 0 mm 1 m/S 722 mmHg 91%
    02:00 +11°C° 0.1 mm 1 m/S 722 mmHg 91%
    03:00 +11°C° 0.1 mm 1 m/S 722 mmHg 91%
    04:00 +11°C° 0.1 mm 1 m/S 722 mmHg 90%
    05:00 +11°C° 0.1 mm 1 m/S 722 mmHg 89%
    06:00 +12°C° 0.1 mm 1 m/S 722 mmHg 87%
    07:00 +12°C° 0.1 mm 1 m/S 722 mmHg 86%
    08:00 +12°C° 0.1 mm 2 m/S 722 mmHg 82%
    09:00 +13°C° 0.1 mm 2 m/S 722 mmHg 78%
    10:00 +14°C° 0.1 mm 2 m/S 722 mmHg 74%
    11:00 +14°C° 0.2 mm 2 m/S 722 mmHg 73%
    12:00 +14°C° 0.2 mm 2 m/S 722 mmHg 72%
    13:00 +15°C° 0.2 mm 1 m/S 722 mmHg 71%
    14:00 +15°C° 0.2 mm 1 m/S 722 mmHg 72%
    15:00 +15°C° 0.2 mm 1 m/S 722 mmHg 73%
    16:00 +15°C° 0.2 mm 1 m/S 722 mmHg 74%
    17:00 +14°C° 0.2 mm 1 m/S 722 mmHg 78%
    18:00 +14°C° 0.2 mm 1 m/S 723 mmHg 82%
    19:00 +13°C° 0.2 mm 1 m/S 723 mmHg 86%
    20:00 +13°C° 0.3 mm 1 m/S 723 mmHg 88%
    21:00 +12°C° 0.3 mm 1 m/S 723 mmHg 90%
    22:00 +11°C° 0.3 mm 1 m/S 724 mmHg 92%
    23:00 +11°C° 0.3 mm 1 m/S 724 mmHg 93%

    29 Mai, Mittwoch

    Zeit Temperatur Niederschläge Wind Luftdruck Luftfeuchtigkeit
    00:00 +11°C° 0.3 mm 1 m/S 724 mmHg 94%
    01:00 +10°C° 0.3 mm 1 m/S 724 mmHg 95%
    02:00 +9°C° 0.4 mm 2 m/S 724 mmHg 96%
    03:00 +9°C° 0.4 mm 2 m/S 724 mmHg 96%
    04:00 +9°C° 0.4 mm 2 m/S 724 mmHg 96%
    05:00 +9°C° 0.7 mm 3 m/S 724 mmHg 96%
    06:00 +9°C° 0.7 mm 3 m/S 724 mmHg 96%
    07:00 +9°C° 0.7 mm 3 m/S 725 mmHg 96%
    08:00 +9°C° 0.5 mm 3 m/S 725 mmHg 95%
    09:00 +9°C° 0.5 mm 3 m/S 725 mmHg 95%
    10:00 +9°C° 0.5 mm 3 m/S 726 mmHg 94%
    11:00 +9°C° 0.3 mm 3 m/S 726 mmHg 94%
    12:00 +10°C° 0.3 mm 3 m/S 726 mmHg 93%
    13:00 +10°C° 0.3 mm 2 m/S 726 mmHg 92%
    14:00 +12°C° 0.2 mm 2 m/S 726 mmHg 90%
    15:00 +12°C° 0.2 mm 2 m/S 727 mmHg 87%
    16:00 +13°C° 0.2 mm 2 m/S 727 mmHg 85%
    17:00 +13°C° 0.1 mm 1 m/S 727 mmHg 86%
    18:00 +13°C° 0.1 mm 1 m/S 727 mmHg 86%
    19:00 +13°C° 0.1 mm 1 m/S 728 mmHg 87%
    20:00 +11°C° 0 mm 1 m/S 728 mmHg 88%
    21:00 +10°C° 0 mm 1 m/S 728 mmHg 90%
    22:00 +9°C° 0 mm 1 m/S 729 mmHg 91%
    23:00 +8°C° 0 mm 1 m/S 729 mmHg 91%
    Mehr zeigen